Weather in Yakovlevo

Russia / Belgorod Oblast     50°51′15″N   36°27′08″E
temp.,
°C
wind,
m/s
gust,
m/s
humid.,
%
clouds,
%
prec.,
mm/h
press.,
hPa
HPBL,
m
20 april, tue
tue2000:00+7ene36915 0.1 1013127
03:00+7e3893100 0.5 1013218
06:00+7ene489293 1.1 1011246
09:00+9e61084100 1.1 1011556
12:00+9e61090100 0.4 1009731
15:00+12ne6776100 0.8 1006936
18:00+9ne71192100 2.4 1003604
21:00+7n71195100 7.3 1001499
21 april, wed
wed2100:00+7nnw6994100 2.5 1001542
03:00+6wnw5993100 2.6 1004951
06:00+6w4892100 0.1 1006603
09:00+7wsw4789100 0.1 1009839
12:00+7wsw589194 0.5 1011602
15:00+11wsw6105873 0.8 10121715
18:00+9sw487283 0.1 1013593
21:00+7ssw388596 0.9 1014201
22 april, thu
thu2200:00+6sw3687100 0.1 1015116
03:00+7sw238786 0.1 101696
06:00+5sw349166 0.0 101770
09:00+11sw467127 0.0 1018525
12:00+14sw6859100 0.8 10181625
15:00+13wsw5766100 1.9 10181109
18:00+13wsw366793 1.4 1019212
21:00+10ssw467891 1.8 102088
23 april, fri
fri2300:00+9s378364 0.4 1019112
03:00+9s388497 0.6 1019169
06:00+8s39855 0.0 1020192
09:00+13ssw59645 0.0 1020573
12:00+16ssw78473 0.0 10191774
15:00+17ssw6849100 0.3 10172503
18:00+14s6106258 0.4 1016638
21:00+11s4137230 0.4 1016297
24 april, sat
sat2400:00+12s6146594 0.1 1014518
03:00+9s4983100 0.3 1013284
06:00+7w5992100 0.6 1012863
09:00+3wnw4997100 4.6 1014440
12:00+9wsw586397 0.4 10131592
15:00+8w9116699 1.8 10131513
18:00+5w8117610 0.7 10141134
21:00+3w6128032 0.8 1017675